• In Czech Republic
  • List of Countries
  • For 7 days
  • Water Temperature
  • Satellite Maps
  • Weather Map
  • Weather Widgets
  • user-avatar
    Login

    Hourly Weather Kribi

    Today, 19 June, Tuesday

    Time Temperature Precipitation Wind Pressure Humidity
    00:00 +26°C° 0.1 mm 4 mps 761 mmHg 86%
    01:00 +26°C° 0 mm 4 mps 761 mmHg 86%
    02:00 +26°C° 0.3 mm 4 mps 760 mmHg 87%
    03:00 +26°C° 0.3 mm 4 mps 760 mmHg 87%
    04:00 +25°C° 0.3 mm 4 mps 760 mmHg 87%
    05:00 +26°C° 0.4 mm 4 mps 760 mmHg 87%
    06:00 +26°C° 0.4 mm 4 mps 760 mmHg 87%
    07:00 +26°C° 0.4 mm 4 mps 760 mmHg 87%
    08:00 +27°C° 0.7 mm 4 mps 761 mmHg 84%
    09:00 +27°C° 0.7 mm 4 mps 761 mmHg 81%
    10:00 +28°C° 0.7 mm 4 mps 761 mmHg 78%
    11:00 +29°C° 0.9 mm 4 mps 761 mmHg 77%
    12:00 +29°C° 0.9 mm 5 mps 760 mmHg 77%
    13:00 +29°C° 0.9 mm 5 mps 760 mmHg 76%
    14:00 +29°C° 0.9 mm 5 mps 760 mmHg 77%
    15:00 +29°C° 0.9 mm 5 mps 759 mmHg 78%
    16:00 +28°C° 0.9 mm 5 mps 758 mmHg 79%
    17:00 +28°C° 0.4 mm 5 mps 759 mmHg 81%
    18:00 +27°C° 0.4 mm 5 mps 759 mmHg 82%
    19:00 +26°C° 0.4 mm 4 mps 759 mmHg 84%
    20:00 +26°C° 0.3 mm 4 mps 759 mmHg 85%
    21:00 +26°C° 0.3 mm 4 mps 760 mmHg 85%
    22:00 +26°C° 0.3 mm 4 mps 761 mmHg 85%
    23:00 +26°C° 0.4 mm 4 mps 761 mmHg 86%

    Tomorrow, 20 June, Wednesday

    Time Temperature Precipitation Wind Pressure Humidity
    00:00 +25°C° 0.4 mm 4 mps 761 mmHg 86%
    01:00 +25°C° 0.4 mm 3 mps 761 mmHg 86%
    02:00 +25°C° 0.4 mm 3 mps 760 mmHg 87%
    03:00 +25°C° 0.4 mm 3 mps 760 mmHg 88%
    04:00 +25°C° 0.4 mm 3 mps 759 mmHg 88%
    05:00 +25°C° 0.4 mm 3 mps 760 mmHg 88%
    06:00 +25°C° 0.4 mm 3 mps 760 mmHg 88%
    07:00 +25°C° 0.4 mm 3 mps 760 mmHg 88%
    08:00 +26°C° 0.3 mm 3 mps 761 mmHg 82%
    09:00 +28°C° 0.3 mm 3 mps 761 mmHg 76%
    10:00 +29°C° 0.3 mm 3 mps 761 mmHg 70%
    11:00 +30°C° 0.3 mm 3 mps 761 mmHg 68%
    12:00 +30°C° 0.3 mm 3 mps 761 mmHg 66%
    13:00 +32°C° 0.3 mm 4 mps 760 mmHg 64%
    14:00 +30°C° 0.3 mm 4 mps 760 mmHg 67%
    15:00 +30°C° 0.3 mm 4 mps 759 mmHg 69%
    16:00 +29°C° 0.3 mm 4 mps 759 mmHg 71%
    17:00 +28°C° 0 mm 4 mps 759 mmHg 75%
    18:00 +27°C° 0 mm 3 mps 759 mmHg 79%
    19:00 +26°C° 0 mm 3 mps 760 mmHg 83%
    20:00 +26°C° 0 mm 3 mps 760 mmHg 84%
    21:00 +26°C° 0 mm 3 mps 761 mmHg 84%
    22:00 +26°C° 0 mm 3 mps 762 mmHg 85%
    23:00 +25°C° 0.1 mm 3 mps 761 mmHg 86%

    Day after tomorrow, 21 June, Thursday

    Time Temperature Precipitation Wind Pressure Humidity
    00:00 +25°C° 0.1 mm 3 mps 761 mmHg 87%
    01:00 +25°C° 0.1 mm 2 mps 761 mmHg 88%
    02:00 +25°C° 0.1 mm 2 mps 761 mmHg 89%
    03:00 +25°C° 0.1 mm 2 mps 760 mmHg 89%
    04:00 +25°C° 0.1 mm 2 mps 760 mmHg 90%
    05:00 +25°C° 0.1 mm 2 mps 760 mmHg 89%
    06:00 +25°C° 0.1 mm 2 mps 760 mmHg 89%
    07:00 +25°C° 0.1 mm 2 mps 761 mmHg 88%
    08:00 +26°C° 0.1 mm 3 mps 761 mmHg 82%
    09:00 +28°C° 0.1 mm 3 mps 761 mmHg 77%
    10:00 +29°C° 0.1 mm 3 mps 762 mmHg 71%
    11:00 +30°C° 0.1 mm 3 mps 761 mmHg 67%
    12:00 +31°C° 0.1 mm 3 mps 761 mmHg 64%
    13:00 +33°C° 0.1 mm 4 mps 760 mmHg 60%
    14:00 +32°C° 0 mm 4 mps 760 mmHg 62%
    15:00 +32°C° 0 mm 4 mps 759 mmHg 63%
    16:00 +32°C° 0 mm 4 mps 758 mmHg 64%
    17:00 +29°C° 0 mm 4 mps 759 mmHg 70%
    18:00 +28°C° 0 mm 4 mps 759 mmHg 76%
    19:00 +27°C° 0 mm 4 mps 760 mmHg 82%
    20:00 +26°C° 0 mm 3 mps 760 mmHg 84%
    21:00 +26°C° 0 mm 3 mps 761 mmHg 86%
    22:00 +26°C° 0 mm 3 mps 762 mmHg 88%
    23:00 +25°C° 0 mm 3 mps 762 mmHg 89%

    22 June, Friday

    Time Temperature Precipitation Wind Pressure Humidity
    00:00 +25°C° 0 mm 3 mps 761 mmHg 90%
    01:00 +25°C° 0 mm 2 mps 761 mmHg 91%
    02:00 +25°C° 0 mm 2 mps 761 mmHg 91%
    03:00 +25°C° 0 mm 2 mps 760 mmHg 91%
    04:00 +25°C° 0 mm 2 mps 760 mmHg 91%
    05:00 +25°C° 0.1 mm 2 mps 760 mmHg 91%
    06:00 +25°C° 0.1 mm 2 mps 761 mmHg 91%
    07:00 +25°C° 0.1 mm 2 mps 761 mmHg 90%
    08:00 +27°C° 0 mm 2 mps 761 mmHg 82%
    09:00 +28°C° 0 mm 2 mps 761 mmHg 75%
    10:00 +30°C° 0 mm 3 mps 761 mmHg 67%
    11:00 +30°C° 0 mm 3 mps 761 mmHg 65%
    12:00 +31°C° 0 mm 3 mps 760 mmHg 64%
    13:00 +31°C° 0 mm 3 mps 759 mmHg 62%
    14:00 +31°C° 0 mm 3 mps 759 mmHg 63%
    15:00 +31°C° 0 mm 3 mps 758 mmHg 64%
    16:00 +30°C° 0 mm 4 mps 758 mmHg 66%
    17:00 +29°C° 0 mm 4 mps 758 mmHg 71%
    18:00 +28°C° 0 mm 3 mps 759 mmHg 77%
    19:00 +27°C° 0 mm 3 mps 759 mmHg 83%
    20:00 +26°C° 0 mm 3 mps 760 mmHg 85%
    21:00 +26°C° 0 mm 3 mps 760 mmHg 86%
    22:00 +26°C° 0 mm 3 mps 761 mmHg 88%
    23:00 +26°C° 0 mm 3 mps 761 mmHg 88%

    23 June, Saturday

    Time Temperature Precipitation Wind Pressure Humidity
    00:00 +26°C° 0 mm 3 mps 761 mmHg 88%
    01:00 +26°C° 0 mm 3 mps 760 mmHg 88%
    02:00 +26°C° 0 mm 2 mps 760 mmHg 88%
    03:00 +26°C° 0 mm 2 mps 760 mmHg 89%
    04:00 +25°C° 0 mm 2 mps 759 mmHg 89%
    05:00 +26°C° 0 mm 2 mps 760 mmHg 88%
    06:00 +26°C° 0 mm 1 mps 760 mmHg 88%
    07:00 +26°C° 0 mm 1 mps 760 mmHg 87%
    08:00 +27°C° 0 mm 1 mps 761 mmHg 82%
    09:00 +28°C° 0 mm 1 mps 761 mmHg 76%
    10:00 +29°C° 0 mm 1 mps 761 mmHg 70%
    11:00 +29°C° 0 mm 1 mps 760 mmHg 68%
    12:00 +30°C° 0 mm 2 mps 760 mmHg 66%
    13:00 +30°C° 0 mm 2 mps 759 mmHg 64%
    14:00 +30°C° 0 mm 2 mps 758 mmHg 64%
    15:00 +30°C° 0 mm 3 mps 758 mmHg 65%
    16:00 +30°C° 0 mm 3 mps 757 mmHg 66%
    17:00 +29°C° 0 mm 3 mps 758 mmHg 71%
    18:00 +28°C° 0 mm 3 mps 758 mmHg 77%
    19:00 +27°C° 0 mm 2 mps 759 mmHg 82%
    20:00 +26°C° 0 mm 2 mps 759 mmHg 83%
    21:00 +26°C° 0 mm 2 mps 759 mmHg 85%
    22:00 +26°C° 0 mm 2 mps 760 mmHg 86%
    23:00 +25°C° 0 mm 2 mps 759 mmHg 87%

    24 June, Sunday

    Time Temperature Precipitation Wind Pressure Humidity
    00:00 +25°C° 0 mm 2 mps 759 mmHg 87%
    01:00 +25°C° 0 mm 2 mps 759 mmHg 88%
    02:00 +25°C° 0 mm 2 mps 759 mmHg 88%
    03:00 +25°C° 0 mm 2 mps 758 mmHg 88%
    04:00 +25°C° 0 mm 2 mps 758 mmHg 88%
    05:00 +25°C° 0 mm 2 mps 759 mmHg 88%
    06:00 +25°C° 0 mm 1 mps 759 mmHg 87%
    07:00 +26°C° 0 mm 1 mps 759 mmHg 87%
    08:00 +26°C° 0.1 mm 1 mps 760 mmHg 84%
    09:00 +27°C° 0.1 mm 1 mps 760 mmHg 81%
    10:00 +28°C° 0.1 mm 2 mps 760 mmHg 78%
    11:00 +28°C° 0.1 mm 2 mps 760 mmHg 76%
    12:00 +29°C° 0.1 mm 2 mps 759 mmHg 74%
    13:00 +29°C° 0.1 mm 2 mps 758 mmHg 73%
    14:00 +29°C° 0 mm 2 mps 758 mmHg 73%
    15:00 +29°C° 0 mm 3 mps 757 mmHg 72%
    16:00 +29°C° 0 mm 3 mps 757 mmHg 72%
    17:00 +28°C° 0 mm 3 mps 757 mmHg 76%
    18:00 +27°C° 0 mm 2 mps 758 mmHg 80%
    19:00 +26°C° 0 mm 2 mps 758 mmHg 84%
    20:00 +26°C° 0 mm 2 mps 759 mmHg 85%
    21:00 +26°C° 0 mm 2 mps 759 mmHg 86%
    22:00 +26°C° 0 mm 2 mps 760 mmHg 87%
    23:00 +25°C° 0 mm 2 mps 759 mmHg 88%
    Show more